Vorticity
3 7 10 8 12 17 11 8 7 6 7 9 9 8 7 7 7 10 7 9 8 9
5 -1 4 16 19 9 9 7 6 6 9 9 8 6 6 7 8 9 9 8 8 7
6 10 13 11 11 9 7 6 6 7 8 8 6 5 6 9 10 9 8 7 8 8
-0 4 7 15 12 7 6 6 7 8 7 7 6 7 9 10 9 8 8 8 9 9
17 16 15 13 8 6 6 5 7 7 7 6 6 10 11 9 7 8 9 9 10 8
15 16 9 10 8 6 5 6 7 7 7 7 10 10 10 7 8 9 9 9 8 8
12 9 13 8 6 6 6 7 7 7 7 10 11 10 7 8 9 8 8 9 7 6
11 12 8 6 5 6 7 7 6 7 9 11 10 8 9 8 6 9 8 7 5 6
3 8 8 7 7 7 6 8 7 8 11 10 9 9 8 6 9 8 7 4 6 6
17 11 10 5 6 7 8 8 7 10 11 9 9 7 6 8 7 6 5 7 7 6
11 9 9 9 7 8 9 7 10 12 9 10 6 6 7 7 6 6 5 6 4 4
10 12 9 8 7 8 8 9 13 10 10 7 6 6 6 6 5 3 3 2 3 7
6 6 5 4 6 9 9 12 12 10 8 6 5 6 5 4 3 4 3 5 7 6
4 7 8 7 8 10 11 14 10 8 6 5 4 5 4 4 4 5 5 6 6 5
Height
5799 5800 5800 5800 5800 5800 5800 5800 5799 5798 5797 5795 5794 5793 5791 5789 5787 5785 5781 5777 5774 5771
5790 5790 5791 5792 5792 5792 5793 5792 5792 5791 5789 5788 5787 5786 5784 5782 5779 5776 5773 5769 5766 5762
5780 5781 5782 5783 5783 5784 5784 5784 5784 5784 5782 5781 5780 5778 5776 5774 5772 5768 5765 5761 5758 5753
5771 5772 5773 5773 5774 5775 5776 5777 5777 5776 5776 5774 5773 5771 5769 5766 5763 5760 5757 5753 5749 5744
5760 5762 5763 5765 5766 5767 5769 5769 5770 5769 5769 5767 5765 5764 5761 5758 5755 5752 5749 5745 5741 5737
5751 5753 5755 5756 5758 5760 5761 5762 5762 5762 5761 5760 5758 5755 5753 5750 5747 5745 5742 5737 5733 5730
5742 5745 5747 5748 5750 5753 5754 5754 5755 5754 5754 5752 5750 5748 5745 5743 5741 5738 5734 5730 5726 5722
5734 5736 5738 5740 5743 5745 5746 5746 5747 5746 5746 5744 5742 5740 5738 5736 5734 5731 5728 5724 5719 5714
5725 5728 5730 5732 5734 5736 5737 5738 5739 5738 5737 5736 5735 5733 5731 5729 5726 5724 5721 5717 5712 5706
5717 5719 5722 5724 5726 5728 5729 5730 5730 5730 5729 5728 5728 5726 5724 5722 5720 5717 5713 5709 5704 5697
5709 5711 5713 5716 5718 5720 5721 5722 5722 5722 5722 5721 5720 5719 5717 5715 5713 5710 5705 5701 5695 5688
5700 5703 5706 5708 5710 5712 5713 5714 5714 5714 5714 5714 5713 5712 5710 5709 5706 5702 5697 5693 5687 5681
5691 5695 5698 5700 5702 5704 5705 5706 5706 5707 5707 5707 5706 5705 5703 5701 5698 5694 5690 5685 5678 5671
5683 5687 5689 5692 5694 5696 5697 5698 5699 5699 5700 5700 5698 5698 5695 5692 5689 5684 5681 5676 5670 5661